Temp
48 46 43 40 39 38 37 37 38 37 37 37 37 37 36 36 35 35 34 34 34 34
45 43 40 40 39 37 37 37 36 36 35 35 34 34 35 33 32 34 34 34 33 33
43 40 39 38 36 36 35 35 34 33 33 32 32 32 32 31 32 34 33 33 32 32
38 38 38 36 35 34 34 34 33 32 32 32 31 31 32 33 33 32 32 32 31 30
37 36 34 33 33 34 33 33 32 32 31 31 31 32 34 33 32 31 30 30 30 30
33 33 33 32 32 32 32 31 31 31 30 30 33 33 33 32 31 30 30 29 28 28
33 34 33 32 32 32 31 30 30 30 31 33 33 33 32 31 30 29 29 30 29 27
33 32 32 31 30 30 29 29 32 32 32 32 33 33 31 31 30 29 28 29 30 28
32 30 29 29 29 30 31 31 32 31 31 31 34 36 35 32 30 30 29 28 28 28
30 28 29 31 32 31 31 31 30 30 30 30 31 35 35 33 30 29 28 28 28 29
28 30 31 31 30 31 31 30 30 29 29 30 32 35 34 33 30 29 28 28 28 27
31 30 30 30 29 29 29 29 29 29 28 28 30 34 34 31 29 29 28 29 27 26
31 30 29 29 28 29 30 30 30 29 27 27 28 33 33 30 29 26 27 27 28 29
30 29 29 28 28 28 28 27 26 26 25 25 25 28 32 31 28 26 24 24 23 24
MSLP
1013.23 1014.52 1016.32 1017.60 1018.88 1020.06 1021.01 1021.71 1022.46 1022.86 1023.32 1023.94 1024.89 1025.46 1025.99 1026.25 1026.60 1027.54 1027.74 1027.90 1027.80 1027.69
1013.43 1014.60 1016.30 1017.96 1019.26 1020.12 1021.25 1022.10 1022.87 1023.32 1024.03 1025.29 1025.03 1025.65 1026.52 1027.39 1027.64 1027.86 1028.32 1028.46 1028.56 1028.56
1013.62 1015.01 1016.51 1018.20 1019.42 1020.38 1021.33 1022.43 1023.14 1023.82 1025.00 1025.17 1025.81 1026.56 1027.08 1027.79 1028.14 1028.24 1028.75 1029.21 1029.09 1029.29
1013.90 1015.46 1016.79 1018.69 1020.02 1020.71 1021.74 1022.26 1023.47 1023.91 1024.99 1026.01 1026.76 1027.38 1027.35 1027.89 1028.27 1028.60 1029.00 1029.43 1029.52 1029.71
1013.99 1015.86 1017.60 1019.30 1020.39 1021.77 1022.47 1022.86 1023.44 1024.59 1025.54 1026.46 1027.29 1027.52 1027.45 1028.18 1028.49 1028.81 1029.23 1029.46 1029.72 1029.96
1015.05 1016.20 1018.03 1020.02 1021.00 1022.25 1022.88 1023.75 1024.55 1025.34 1026.12 1027.04 1027.16 1027.42 1027.82 1028.18 1029.02 1029.33 1029.50 1029.86 1030.27 1030.75
1016.05 1017.69 1018.39 1020.29 1021.56 1022.71 1023.57 1024.68 1025.39 1026.00 1026.61 1027.35 1027.61 1028.08 1028.49 1028.95 1029.31 1029.71 1030.17 1030.55 1031.00 1030.97
1017.24 1018.10 1019.51 1021.03 1022.39 1023.62 1024.36 1025.17 1025.85 1026.67 1027.14 1027.83 1028.22 1028.57 1029.19 1029.33 1029.60 1030.14 1030.65 1030.96 1030.98 1031.12
1019.30 1018.93 1020.90 1022.54 1023.85 1024.37 1024.63 1025.84 1026.47 1027.16 1027.69 1028.20 1028.49 1028.86 1029.39 1029.77 1030.25 1030.52 1030.73 1030.82 1031.03 1031.27
1019.80 1020.69 1021.80 1023.67 1024.69 1024.67 1025.36 1026.50 1027.13 1027.82 1028.28 1028.62 1028.82 1029.34 1029.78 1030.11 1030.09 1030.43 1030.87 1031.02 1031.33 1031.43
1021.54 1022.03 1023.14 1024.25 1024.95 1025.64 1026.18 1026.96 1027.78 1028.53 1028.69 1028.99 1029.44 1029.68 1029.91 1029.86 1030.41 1030.84 1031.21 1031.46 1031.67 1031.77
1022.77 1022.81 1023.62 1024.64 1025.64 1026.40 1026.86 1027.49 1028.19 1028.76 1029.05 1029.63 1029.72 1029.77 1030.00 1030.59 1030.95 1031.11 1031.42 1031.58 1031.64 1031.83
1022.96 1023.22 1023.96 1025.09 1026.34 1027.00 1027.46 1028.03 1028.86 1029.43 1029.83 1030.11 1030.13 1030.15 1030.70 1031.09 1031.17 1031.34 1031.58 1031.93 1031.60 1031.27
1023.75 1024.15 1024.96 1025.86 1027.11 1027.43 1028.04 1028.80 1029.44 1029.90 1030.44 1030.83 1031.40 1031.15 1031.14 1031.27 1031.57 1031.62 1031.78 1031.71 1031.76 1031.94
Wind_Speed
15 11 10 11 11 9 9 9 11 12 12 13 12 10 9 8 8 6 5 6 6 6
14 16 14 15 13 10 12 11 12 12 13 10 11 11 9 7 6 6 5 6 7 6
15 16 17 15 16 15 14 14 13 12 10 11 10 10 8 6 6 8 5 4 7 6
17 17 18 16 15 16 15 15 12 12 12 11 9 7 7 8 7 9 8 6 6 6
21 18 18 16 16 12 14 12 13 12 11 9 7 6 8 8 7 8 8 6 6 5
19 20 20 18 15 14 14 13 12 11 10 8 9 9 8 8 7 7 7 6 6 4
18 19 17 17 15 14 13 12 10 9 9 9 9 8 8 8 8 7 6 5 4 4
17 19 19 16 14 13 12 10 11 11 10 9 8 6 7 7 7 6 5 4 4 4
15 19 17 15 12 12 13 11 11 10 9 8 6 14 13 8 5 5 5 4 4 3
15 17 17 13 12 13 13 11 11 10 9 9 8 14 12 10 5 5 4 4 3 2
15 15 14 13 12 12 10 11 9 8 8 8 7 11 11 10 5 5 4 4 3 3
12 15 14 13 11 10 10 9 8 8 8 7 6 10 9 6 4 4 4 2 1 1
12 13 14 13 11 8 9 10 8 8 7 7 6 10 9 6 3 4 3 3 3 6
11 12 12 12 8 9 9 9 8 9 7 8 5 6 10 10 5 3 2 3 4 4
Wind_Direction
143 137 137 134 135 125 120 114 110 102 100 102 94 90 87 81 82 87 101 101 75 83
133 129 131 125 121 120 117 114 109 106 104 91 99 94 92 96 107 101 88 82 83 82
128 122 121 122 124 122 116 115 113 101 96 98 94 104 111 110 100 101 90 94 89 85
122 124 120 118 121 120 119 121 109 104 109 108 115 121 111 100 107 104 102 89 90 85
116 116 114 113 113 109 113 101 103 107 111 117 119 117 109 118 111 110 109 98 86 76
114 115 115 107 106 111 107 102 109 114 114 118 116 113 110 107 105 99 91 88 86 86
117 114 107 114 108 107 107 111 106 103 106 108 107 105 100 106 100 91 88 96 103 96
102 105 100 103 105 109 112 112 108 108 103 100 97 101 108 104 105 109 110 109 107 96
103 100 103 103 115 116 104 103 108 103 98 98 104 110 111 104 106 105 108 102 86 112
102 100 102 113 115 106 106 105 99 101 107 100 99 108 109 110 98 92 91 83 76 88
104 109 108 107 102 101 103 103 107 108 105 105 112 112 100 89 89 88 90 95 92 92
117 110 110 106 105 108 106 106 107 105 97 92 85 92 84 76 81 93 84 89 113 126
111 108 108 112 116 108 106 101 99 97 94 87 76 85 81 75 67 69 49 20 41 16
98 103 107 101 105 105 104 102 101 95 79 76 64 73 73 69 65 69 51 39 43 29